Regional Weather Roundup
Issued by NWS

Home | Current Version | Previous Version | Text Only | Print | Product List | Glossary On
Versions: 1 2 3 4 5 6 7 8 9 10 11 12 13 14 15 16 17 18 19 20 21 22 23 24 25 26 27 28 29 30 31 32 33 34 35 36 37 38 39 40 41 42 43 44 45 46 47 48 49 50
000
ASUS44 KOUN 130810
RWROK

WEATHER ROUNDUP FOR OKLAHOMA
NATIONAL WEATHER SERVICE NORMAN OK
300 AM CDT SUN JUL 13 2014

NOTE: "FAIR" INDICATES FEW OR NO CLOUDS BELOW 12,000 FEET WITH NO
      SIGNIFICANT WEATHER AND/OR OBSTRUCTIONS TO VISIBILITY.

OKZ001>007-009>012-014-015-017-130900-
NORTHWEST OKLAHOMA AND THE PANHANDLE

CITY           SKY/WX    TMP DP  RH WIND       PRES   REMARKS
GAGE           CLEAR     73  50  44 S9        30.07F
ENID/WOODRING  CLEAR     64  59  82 S5        30.01F
$$

OKZ016-021>023-033>039-044-045-130900-
SOUTHWEST OKLAHOMA

CITY           SKY/WX    TMP DP  RH WIND       PRES   REMARKS
LAWTON/REGL    CLEAR     74  58  57 CALM      30.07S
FREDERICK      CLEAR     74  56  53 S7        30.04S
CLINTON        CLEAR     76  54  46 S12       30.09F
HOBART         CLEAR     75  57  53 S12       30.07F
$$

OKZ018>020-024>031-130900-
CENTRAL OKLAHOMA

CITY           SKY/WX    TMP DP  RH WIND       PRES   REMARKS
OKLAHOMA CITY  CLEAR     71  60  68 S8        30.06S
OKC/WILEY POST CLEAR     78  60  53 S12       30.05F
OKC/TINKER AFB CLEAR     71  61  69 S9        30.06
STILLWATER     CLEAR     74  59  59 S7        30.02S
GUTHRIE        CLEAR     75  58  55 S6        30.03F
$$

OKZ008-013-054>072-130900-
NORTHEAST OKLAHOMA

CITY           SKY/WX    TMP DP  RH WIND       PRES   REMARKS
TULSA          CLEAR     82  61  48 S14       30.00F
TULSA/JONES    CLEAR     73  64  73 S3        30.02S
PONCA CITY     CLEAR     76  58  53 S5        30.01S
BARTLESVILLE   CLEAR     74  61  63 S3        30.02S
MUSKOGEE       CLEAR     72  68  87 S5        30.04F
$$

OKZ032-040>043-046>053-073>077-130900-
SOUTH CENTRAL/SOUTHEAST OKLAHOMA

CITY           SKY/WX    TMP DP  RH WIND       PRES   REMARKS
ARDMORE/DWNTWN CLEAR     72  63  73 CALM      30.06F
MCALESTER      PTCLDY    76  65  68 S5        30.06F
$$



USA.gov is the U.S. government's official web portal to all federal, state and local government web resources and services.